SCP
0 0 0 0 0 0 0 0 0 0 0 0 0 0 0 0 0 0 0 0 1 1 1 1 1 1 2 2 2 2 2 2 2 2 2 2 2 2
0 0 0 0 0 0 0 0 0 0 0 0 0 0 0 0 0 0 0 0 0 1 1 1 1 1 1 2 2 2 2 2 5 6 5 2 2 2
0 0 0 0 0 0 0 0 0 0 0 0 0 0 0 0 0 0 0 0 0 1 1 1 1 1 1 1 1 1 2 2 6 11 6 2 2 2
0 0 0 0 0 0 0 0 0 0 0 0 0 0 0 0 0 0 0 0 0 1 1 1 1 1 1 1 1 1 1 1 4 6 5 2 2 2
0 0 0 0 0 0 0 0 0 0 0 0 0 0 0 0 0 0 0 0 0 1 1 1 1 0 0 0 1 1 1 1 1 1 2 2 2 2
0 0 0 0 0 0 0 0 0 0 0 0 0 0 0 0 0 0 0 0 0 1 1 1 0 0 0 0 0 0 0 0 1 1 1 1 1 1
0 0 0 0 0 0 0 0 0 0 0 0 0 0 0 0 0 0 0 0 0 1 1 1 0 0 0 0 0 0 0 0 0 1 1 0 0 0
0 0 0 0 0 0 0 0 0 0 0 0 0 0 0 0 0 0 0 0 0 0 0 0 0 0 0 0 0 0 0 0 0 0 0 0 0 0
0 0 0 0 0 0 0 0 0 0 0 0 0 0 0 0 0 0 0 0 0 0 0 0 0 0 0 0 0 0 0 0 0 0 0 0 0 0
0 0 0 0 0 0 0 0 0 0 0 0 0 0 0 0 0 0 0 0 0 0 0 0 0 0 0 0 0 0 0 0 0 0 0 0 0 0
0 0 0 0 0 0 0 0 0 0 0 0 0 0 0 0 0 0 0 0 0 0 0 0 0 0 0 0 0 0 0 0 0 0 0 0 0 0
0 0 0 0 0 0 0 0 0 0 0 0 0 0 0 0 0 0 0 0 0 0 0 0 0 0 0 0 0 0 0 0 0 0 0 0 0 0
0 0 0 0 0 0 0 0 0 0 0 0 0 0 0 0 0 0 0 0 0 0 0 0 0 0 0 0 0 0 0 0 0 0 0 0 0 0
0 0 0 0 0 0 0 0 0 0 0 0 0 0 0 0 0 0 0 0 0 0 0 0 0 0 0 0 0 0 0 0 0 0 0 0 0 0
0 0 0 0 0 0 0 0 0 0 0 0 0 0 0 0 0 0 0 0 0 0 0 0 0 0 0 0 0 0 0 0 0 0 0 0 0 0
0 0 0 0 0 0 0 0 0 0 0 0 0 0 0 0 0 0 0 0 0 0 0 0 0 0 0 0 0 0 0 0 0 0 0 0 0 0
0 0 0 0 0 0 0 0 0 0 0 0 0 0 0 0 0 0 0 0 0 0 0 0 0 0 0 0 0 0 0 0 0 0 0 0 0 0
-0 -0 0 0 0 0 0 0 0 0 0 0 0 0 0 0 0 0 0 0 0 0 0 0 0 0 0 0 0 0 0 0 0 0 0 0 0 0
0 0 0 0 0 0 0 0 0 0 0 0 0 0 0 0 0 0 0 0 0 0 0 0 0 0 0 0 0 0 0 0 0 0 0 0 0 0
0 0 0 0 0 0 0 0 0 0 0 0 0 0 0 0 0 0 0 0 0 0 0 0 0 0 0 0 0 0 0 0 0 0 0 0 0 0
0 0 0 0 0 0 0 0 0 0 0 0 0 0 0 0 0 0 0 0 0 0 0 0 0 0 0 0 0 0 0 0 0 0 0 0 0 0
0 0 0 0 0 0 0 0 0 0 0 0 0 0 0 0 0 0 0 0 0 0 0 0 0 0 0 0 0 0 0 0 0 0 0 0 0 0
0 0 0 0 0 0 0 0 0 0 0 0 0 0 0 0 0 0 0 0 0 0 0 0 0 0 0 0 0 0 0 0 0 0 0 0 0 0
Wind_Speed
11 12 10 8 8 7 7 8 9 13 12 7 5 5 8 8 12 10 11 18 17 11 10 12 14 15 17 19 20 23 25 24 22 22 22 22 21 20
10 12 11 8 7 7 7 8 9 11 12 7 7 10 11 11 15 11 11 22 19 11 10 10 10 11 12 14 18 19 20 23 25 26 25 23 22 21
12 12 12 10 8 7 7 8 9 10 13 12 9 10 12 11 9 8 9 10 11 11 10 12 11 10 9 9 12 15 18 19 21 25 27 25 23 23
12 11 10 8 8 7 7 8 8 10 12 14 10 9 12 10 8 8 8 10 10 11 9 11 12 12 11 10 10 11 14 19 21 23 25 26 24 24
9 8 8 8 9 7 8 7 8 9 9 10 10 8 7 6 6 6 9 10 11 9 8 9 11 12 12 12 12 11 13 17 21 23 24 26 27 28
6 7 8 8 11 10 7 8 10 10 8 7 7 6 6 5 4 4 6 7 8 5 4 5 8 11 13 14 14 13 13 15 18 21 23 26 28 29
9 9 9 13 19 15 11 10 10 9 8 7 5 4 3 2 2 2 5 5 7 4 2 3 3 4 6 10 13 15 15 16 18 22 25 27 27 28
10 10 10 10 15 21 22 20 18 13 11 9 7 6 5 4 3 3 1 3 5 3 3 2 3 4 4 5 11 15 17 18 21 24 27 27 27 27
10 10 11 13 11 7 15 19 17 21 19 11 9 8 7 7 6 5 3 2 3 2 2 2 2 2 2 4 13 17 18 21 24 27 28 29 29 30
11 11 10 11 13 12 10 10 9 12 15 10 8 9 10 8 5 5 5 5 5 3 1 2 2 2 2 3 13 18 22 26 29 31 32 33 32 32
11 13 13 9 23 22 14 12 11 11 16 20 19 17 19 18 13 5 3 4 3 1 2 2 3 4 5 4 10 22 28 31 33 35 36 35 34 30
9 12 18 19 23 23 13 12 13 12 13 14 14 15 12 13 16 8 5 3 2 1 0 2 4 5 5 6 7 11 19 29 34 35 35 34 31 18
8 8 10 22 23 24 19 13 17 14 11 11 10 9 9 8 9 8 7 4 3 1 1 2 4 4 7 5 7 8 11 14 18 22 26 29 26 19
9 7 11 22 22 23 18 21 23 17 9 9 9 10 10 10 10 10 9 7 3 2 2 1 4 5 11 10 8 7 10 10 12 13 12 21 21 22
8 17 19 22 19 15 22 24 18 11 10 10 11 10 10 10 9 9 9 7 6 7 7 4 4 6 8 12 12 9 9 9 9 11 11 10 10 10
7 13 18 20 16 17 17 14 11 11 11 10 10 10 10 10 9 10 9 8 6 8 11 12 9 9 10 12 16 15 10 8 7 10 11 10 9 8
7 7 7 8 10 10 10 10 10 11 11 10 10 11 11 11 11 10 10 9 8 7 9 10 15 16 15 11 13 12 13 13 11 10 11 11 8 7
9 6 7 8 9 9 9 10 10 10 10 10 10 11 11 11 11 10 10 10 11 10 8 6 8 13 12 16 16 11 13 13 11 10 10 11 8 5
5 4 5 6 6 6 6 7 7 8 8 8 9 10 10 10 10 11 11 11 11 11 10 9 6 8 14 10 11 14 10 11 11 10 7 7 8 6
3 3 4 4 4 5 5 5 6 6 6 7 8 9 9 9 10 11 11 12 11 11 11 12 12 9 9 10 8 8 13 9 10 10 8 8 7 7
3 3 3 3 3 4 4 4 5 5 5 5 6 7 8 8 9 9 10 15 13 11 12 11 11 13 9 9 12 10 10 13 10 6 6 6 5 3
4 4 4 3 3 3 3 4 4 4 5 5 5 5 6 6 7 9 9 9 9 9 10 9 10 10 10 12 13 12 9 8 10 14 11 7 4 4
5 4 4 4 3 3 3 3 3 3 3 3 4 4 4 4 5 6 7 7 8 9 9 9 9 10 11 11 11 10 11 8 7 7 7 11 11 10
Wind_Direction
293 293 289 281 279 280 279 280 286 294 298 295 291 320 342 325 323 326 326 324 306 247 214 205 203 202 204 205 202 197 191 185 182 180 180 181 179 175
294 295 293 285 283 279 275 272 267 272 278 282 294 307 307 303 305 314 316 320 311 261 199 181 180 186 195 200 199 198 194 189 184 181 181 180 176 170
297 298 297 294 288 282 278 274 270 266 272 280 279 283 282 283 293 301 308 312 304 274 200 175 172 173 176 187 194 194 191 188 187 186 182 179 174 165
298 302 307 316 313 302 293 286 281 271 267 274 276 274 273 275 283 292 303 300 293 279 219 183 179 180 182 184 186 190 188 184 184 187 183 175 168 158
299 316 337 350 345 333 324 325 310 293 267 259 264 264 266 263 268 275 279 281 285 273 228 192 188 187 186 187 186 187 188 186 184 183 178 168 160 156
349 351 350 4 358 345 345 345 334 327 307 271 255 252 257 256 242 236 254 269 277 269 222 188 192 194 191 188 186 186 186 185 183 177 169 161 157 155
9 1 356 11 11 4 5 4 353 351 349 334 303 270 257 264 254 232 233 263 272 255 212 188 181 183 188 194 188 184 182 180 175 167 159 154 151 148
7 358 356 2 14 9 9 13 8 5 7 1 352 346 347 352 340 315 252 233 249 232 189 179 171 179 181 185 184 179 176 172 165 158 151 146 142 139
4 358 2 357 16 4 1 9 7 8 13 10 359 350 342 346 335 315 308 256 257 276 184 160 142 148 150 168 172 171 166 160 152 145 140 135 130 127
1 355 356 350 6 21 0 359 3 1 4 7 3 352 346 349 330 294 294 294 272 277 250 135 114 99 94 133 155 152 146 140 136 132 128 124 121 119
2 359 2 358 8 20 10 0 3 0 360 5 9 6 2 358 2 332 291 248 235 249 0 110 106 77 52 70 129 133 131 129 127 125 123 120 119 115
1 357 1 13 10 17 15 3 8 1 353 354 359 358 355 351 1 357 328 293 261 181 299 105 108 100 71 34 83 112 118 120 120 122 122 120 119 116
4 355 356 12 12 15 18 12 13 10 353 352 353 354 353 353 351 347 335 308 292 289 303 100 106 102 113 101 58 66 99 110 111 114 115 117 120 120
358 350 0 14 14 14 16 15 14 12 360 356 357 358 357 354 347 343 339 336 340 337 347 57 120 145 133 120 101 78 76 86 101 105 107 110 109 111
1 12 14 16 13 9 12 16 13 6 4 1 358 354 349 348 350 351 352 349 14 28 20 28 101 125 127 126 122 118 96 76 84 100 102 103 106 107
7 4 13 13 15 11 11 11 9 8 9 1 354 349 349 357 7 7 7 2 22 28 27 43 61 91 110 116 124 124 114 109 102 96 94 87 81 80
11 3 5 6 9 8 7 8 8 8 8 3 1 357 359 4 10 13 19 27 41 38 39 52 65 67 62 88 111 113 114 112 112 109 102 94 77 82
18 3 6 6 7 5 5 4 7 10 7 5 7 5 3 5 9 15 24 33 40 38 36 40 95 97 80 50 43 100 111 113 111 107 111 111 101 84
12 348 351 353 352 353 354 356 359 360 2 7 11 10 9 9 12 18 22 29 35 37 35 30 35 110 110 95 40 40 95 110 109 104 100 108 119 117
338 330 331 336 341 344 347 349 350 356 2 6 9 12 14 17 19 20 24 31 32 37 41 41 43 57 91 105 102 63 60 85 103 107 106 101 95 100
312 314 314 320 327 333 336 341 345 351 357 0 8 9 13 22 27 26 29 33 39 38 43 39 40 56 76 87 91 81 63 66 82 95 107 108 104 102
283 288 294 300 309 316 322 332 340 347 354 0 2 5 7 18 26 30 32 36 38 40 44 41 40 53 66 84 92 92 85 75 79 83 79 90 117 134
273 269 270 278 281 285 291 306 321 329 339 346 354 2 9 15 17 26 33 38 42 45 48 52 54 60 69 79 88 91 89 88 86 77 62 71 85 93